Regional Weather Roundup
Issued by NWS

Home | Current Version | Previous Version | Text Only | Print | Product List | Glossary On
Versions: 1 2 3 4 5 6 7 8 9 10 11 12 13 14 15 16 17 18 19 20 21 22 23 24 25 26 27 28 29 30 31 32 33 34 35 36 37 38 39 40 41 42 43 44 45 46 47 48 49 50
000
ASUS46 KLOX 162204
RWRCA

SOUTHERN CALIFORNIA WEATHER ROUNDUP
NATIONAL WEATHER SERVICE OXNARD CALIFORNIA
300 PM PDT MON OCT 16 2017

NOTE: "FAIR" INDICATES FEW OR NO CLOUDS BELOW 12,000 FEET WITH NO
SIGNIFICANT WEATHER AND/OR OBSTRUCTIONS TO VISIBILITY.

  -  STATIONS PRECEEDED BY AN ASTERISK (*) ARE NOT NWS OR FAA
     STATIONS AND ARE NOT SUBJECT TO NWS AND FAA QUALITY CONTROL.

CAZ041-042-087-162300-
LA AND ORANGE COUNTY COASTAL AREAS


CITY           SKY/WX    TMP DP  RH WIND       PRES   REMARKS
L.A. DOWNTOWN  SUNNY     90  31  12 VRB6      29.98F
L.A. AIRPORT   MOSUNNY   82  50  32 W12       29.99F
LONG BEACH     SUNNY     92  32  12 W12       29.97F

CITY           SKY/WX    TMP DP  RH WIND       PRES   REMARKS
FULLERTON      SUNNY     98  35  11 SW8       29.95F HX  93
*GETTY CENTER    N/A    N/A N/A N/A SW12G17     N/A
HAWTHORNE      SUNNY     86  38  18 W10       29.99F
*LEO CARRILLO    N/A     83  40  21 W13         N/A
*LOS ALAMITOS  MOSUNNY   93  43  17 S9        29.96F
*REDONDO BEACH   N/A     81  60  48 SW3       29.99F
SANTA ANA      MOSUNNY   88  40  18 W7        29.98F
STA MONICA APT SUNNY     84  42  22 SW6       30.00F
TORRANCE       MOSUNNY   86  27  11 W17       29.99F
*UCLA            N/A     88  27  11 S7        29.97F

$$

CAZ547-548-048-162300-
LA COUNTY VALLEYS AND INLAND EMPIRE


CITY           SKY/WX    TMP DP  RH WIND       PRES   REMARKS
BURBANK        SUNNY     97  24   7 W12G20    29.99F HX  90
VAN NUYS       SUNNY     97  14   5 N8G18     29.99F HX  90

CITY           SKY/WX    TMP DP  RH WIND       PRES   REMARKS
CORONA AIRPORT CLEAR     99  34  10 MISG      29.98F HX  93
*CHATSWORTH      N/A     97  32  10 CALM      29.96F HX  91
CHINO          MOSUNNY   99  41  13 W9        29.99F HX  94
*CLAREMONT       N/A     94  27   9 W6          N/A
MARCH AFB      SUNNY     94  24   8 NW10      30.03F
*NORTHRIDGE      N/A     99  18   5 VRB3G9      N/A  HX  91
ONTARIO        MOSUNNY   97  24   7 SW8       30.00F HX  90
*PASADENA        N/A     97  39  13 E7          N/A  HX  92
POMONA         SUNNY     93  27   9 W7        30.04F
RIVERSIDE      SUNNY     97  32  10 W9G16     29.99F HX  91
SAN BERNARDINO MOSUNNY  100  27   7 W13       30.01F HX  93
*SAN RAFAEL HI   N/A     94  24   8 SW7         N/A
*SAUGUS          N/A     94  17   6 E5          N/A
*WHITEMAN AP   NOT AVBL
*WHITTIER HILL   N/A     97  29   9 SW9         N/A  HX  91
*WOODLAND HILL   N/A    100  25   7 S2G8        N/A  HX  93

$$

CAZ054-055-162300-
LA AND SAN BERNARDINO COUNTY MOUNTAINS


CITY           SKY/WX    TMP DP  RH WIND       PRES   REMARKS
*ACTON           N/A     82  12   7 N14         N/A
*BIG BEAR AIRP CLEAR     70  10  10 CALM      30.38F
*BIG PINES       N/A     70  13  11 N2          N/A
*CHILAO          N/A     82  22  11 SW8G20      N/A
SANDBERG       SUNNY     82   3   5 E14       30.27F
*WARM SPRINGS    N/A     81  14   8 E9          N/A

$$

CAZ028-029-059-060-099-162300-
ANTELOPE VALLEY AND SURROUNDING AREAS


CITY           SKY/WX    TMP DP  RH WIND       PRES   REMARKS
LANCASTER      SUNNY     84   6   5 E5        30.17F
PALMDALE       SUNNY     83   7   5 CALM      30.18F
*POPPY PARK      N/A     83   5   5 E7          N/A

CITY           SKY/WX    TMP DP  RH WIND       PRES   REMARKS
29 PALMS       SUNNY     88   2   4 SE3       30.19F
BARSTOW/DAGGET SUNNY     83   8   6 E6        30.14F
BISHOP         SUNNY     79   2   5 VRB7      30.23F
CHINA LAKE     MOSUNNY   84   2   4 SE3       30.17F
EDWARDS AFB    MOSUNNY   81  -1   4 N5        30.14F
MOJAVE         SUNNY     81   7   6 VRB5      30.19F
NEEDLES        SUNNY     93   1   3 N12       30.06F
VICTORVILLE    SUNNY     82  10   6 CALM      30.19F

$$

CAZ039-040-162300-
VENTURA AND SANTA BARBARA COUNTY COAST


CITY           SKY/WX    TMP DP  RH WIND       PRES   REMARKS
CAMARILLO      SUNNY     88  33  14 W10       30.00F
NWS OXNARD       N/A     88  38  17 CALM      29.98F
OXNARD AIRPORT SUNNY     78  58  49 W14       30.00F
*POINT MUGU    MOSUNNY   79  60  52 W9        30.01F
SBA APT/GOLETA SUNNY     86  36  16 SW9       30.00F
*SANTA BARBARA   N/A     93  20   7 N5        30.07F
*VENTURA         N/A     90  28  11 W2        29.95F

$$

CAZ044-045-162300-
VENTURA COUNTY VALLEYS


CITY           SKY/WX    TMP DP  RH WIND       PRES   REMARKS
*SIMI VALLEY     N/A     95  38  14 SW7       29.91F HX  90
*WESTLAKE VILL   N/A     95  42  15 CALM      29.98F HX  91
*OJAI            N/A     99  33  10 W3        29.94S HX  93
*FILLMORE        N/A     99  30   9 SE2       30.01S HX  93

$$

CAZ053-162300-
VENTURA COUNTY MOUNTAINS


CITY           SKY/WX    TMP DP  RH WIND       PRES   REMARKS
*LOCKWOOD VLY    N/A     81  18   9 CALM        N/A
*ROSE VALLEY     N/A     84  19   9 MISG        N/A

$$

CAZ034-035-036-162300-
CENTRAL COAST AND SANTA YNEZ VALLEY


CITY           SKY/WX    TMP DP  RH WIND       PRES   REMARKS
SAN LUIS OBISP SUNNY     87  42  20 NW15      30.02F
SANTA MARIA    SUNNY     83  41  22 NW9       30.04F

CITY           SKY/WX    TMP DP  RH WIND       PRES   REMARKS
*CAL POLY SLO    N/A     90  41  18 W8          N/A
*LOMPOC        SUNNY     81  35  19 W13       30.03F
*PISMO BEACH     N/A     73  49  42 CALM      30.03S
*SANTA YNEZ    FAIR      95  12   5 SW8       30.02F

$$

CAZ037-038-051-162300-
SAN LUIS OBISPO COUNTY INTERIOR AND CUYAMA VALLEY


CITY           SKY/WX    TMP DP  RH WIND       PRES   REMARKS
*CUYAMA          N/A     87  28  12 CALM      30.00F
PASO ROBLES    SUNNY     89  18   7 W3        30.05F

$$

CAZ032-033-061-162300-
SOUTHERN DESERTS


CITY           SKY/WX    TMP DP  RH WIND       PRES   REMARKS
BLYTHE         SUNNY     95  16   5 N7        30.00F
IMPERIAL       MOSUNNY   96  27   8 N7        29.97F HX  90
PALM SPRINGS   SUNNY     98  12   4 CALM      30.00F HX  91
THERMAL        SUNNY     99  20   6 SE9       29.95F HX  92

$$

ELSEWHERE ACROSS THE WESTERN UNITED STATES AND MEXICO


CITY           SKY/WX    TMP DP  RH WIND       PRES   REMARKS
DENVER, CO     MOSUNNY   77   3   5 W15       30.21S
GRAND CANYON,  SUNNY     74   4   6 VRB7      30.40S
HONOLULU, HI   MOSUNNY   85  63  47 E25G32    30.00F
KAHULUI, MAUI  MOSUNNY   86  64  47 E20G33    29.99F
LAKE TAHOE, CA MOSUNNY   65  25  22 N5        30.36F
LAS VEGAS, NV  MOSUNNY   82   9   6 CALM      30.16F
MAMMOTH LAKES, FAIR      74   5   7 E7        30.40S
MEXICO CITY, M CLOUDY    68  48  49 N16       30.35F
PHOENIX, AZ    MOSUNNY   96  35  11 NE7       29.98F HX  91
PORTLAND, OR   MOSUNNY   65  46  50 N3        30.19F
RENO, NV       PTSUNNY   71  16  12 CALM      30.28F
SALT LAKE CITY PTSUNNY   64  28  25 NW7       30.35F
SAN DIEGO, CA  MOSUNNY   85  42  22 NW13      29.97F
SAN FRANCISCO, MOSUNNY   78  38  23 N3        30.06F
SAN JOSE, CA   PTSUNNY   84  37  18 NW7       30.06F
SEATTLE, WA    MOSUNNY   60  48  64 S18       30.17F
TIJUANA, MEX   SUNNY     90  41  18 W16       29.99F

$$

STATION/POSITION TIME  TEMP    WIND        PRES    VSBY  WAVE
                       AIR SEA DIR/SP/G                  HT/PER
                 (UTC) (F)     (DEG/KT/KT) (MB)    (MI)  (FT/S)
POINT ARGUELLO B NOT AVBL
WEST SANTA BARBA 2150   67 68  300/ 10/ 12 1016.4F         4/ 9
POINT CONCEPTION NOT AVBL
EAST SANTA BARBA 2150   70 68  260/  8/ 10 1017.0F         2/ 9
SANTA MONICA BAY 2150      70  280/  8/  8 1015.7F         2/15


USA.gov is the U.S. government's official web portal to all federal, state and local government web resources and services.